Location: Appeville
(49.3218°N, 1.3427°W)
Time: 12:15:46
(UTC+00:00)

Cosmos 1741 Rocket - Pass Details

Date: 08 December 2019
Orbit: 762 x 782 km, 74.0° (Epoch: 23 January)

Event Time Altitude Azimuth Distance (km) Brightness Sun altitude
Exits shadow 05:43:15 14° 342° (NNW) 2,020 5.9 -19.2°
Maximum altitude 05:47:42 68° 64° (ENE) 825 4.3 -18.5°
Drops below altitude 10° 05:52:53 10° 148° (SSE) 2,294 7.1 -17.7°
Sets 05:55:16 0° 150° (SSE) 3,217 7.9 -17.3°
